Location: Unspecified
(26.1220°N, 0.0000°E)
Time: 01:54:19
(UTC+00:00)

Envisat - Pass Details

Date: 29 May 2019
Orbit: 764 x 766 km, 98.1° (Epoch: 24 June)

Event Time Altitude Azimuth Distance (km) Brightness Sun altitude
Rises 19:49:22 0° 210° (SSW) 3,218 6.2 -13.2°
Reaches altitude 10° 19:52:50 10° 235° (SW) 2,296 5.8 -13.9°
Maximum altitude 19:55:21 14° 265° (W) 2,046 6.0 -14.4°
Drops below altitude 10° 19:57:53 10° 295° (WNW) 2,301 6.8 -14.8°
Sets 20:01:24 0° 321° (NW) 3,231 7.7 -15.5°
